Temp
11 12 14 15 16 17 17 17 18 18 18 18 18 19 19 19 19 19 23 23 21 20 20 21 22 23 23 24 24 24 25 26 28 27 28 26 25 25 25 25 24 24 25 22 20
12 14 16 16 16 16 17 17 18 18 18 18 18 18 19 19 19 22 22 21 21 20 21 23 24 24 25 25 24 24 25 27 27 27 26 26 25 26 24 24 25 24 23 20 18
13 15 16 17 17 17 17 17 18 18 18 18 18 18 19 18 22 25 21 21 20 20 21 23 24 24 24 25 25 25 25 27 26 26 25 25 24 25 24 24 26 25 25 20 18
14 16 16 17 17 17 17 18 18 18 18 18 18 18 19 18 24 23 21 20 20 19 21 23 24 24 24 24 26 23 25 25 25 23 23 23 25 24 24 25 26 25 26 22 19
15 16 17 17 17 17 18 18 18 18 18 18 18 18 18 23 25 21 21 20 19 19 22 23 24 25 24 26 25 24 26 25 24 23 22 23 22 23 24 25 26 24 23 23 21
15 16 16 17 17 18 18 18 18 18 18 18 18 18 19 22 21 21 20 20 21 21 22 23 24 26 24 25 24 25 24 25 25 23 23 22 23 22 24 24 25 24 22 23 22
16 16 17 17 17 17 18 18 18 18 18 18 18 17 21 23 22 20 20 21 20 21 23 23 23 23 25 24 25 24 23 25 25 24 22 22 22 22 24 25 24 24 24 22 22
15 16 17 17 18 17 18 18 18 18 18 17 17 18 22 21 21 20 20 20 20 20 21 20 20 23 23 23 23 23 24 25 25 23 22 21 25 29 27 26 24 24 23 23 22
15 16 17 17 18 18 18 18 18 17 17 17 17 20 23 19 20 21 21 22 21 20 20 20 21 23 22 23 24 25 25 27 26 23 23 21 25 28 24 24 25 25 24 23 22
16 17 17 18 18 18 18 18 17 17 16 16 18 20 22 22 20 20 20 20 21 21 20 21 22 22 23 24 25 27 27 27 26 24 22 23 22 25 26 25 25 25 25 25 23
16 17 17 18 18 18 18 17 20 19 19 23 24 24 22 20 19 20 20 20 22 21 22 21 21 22 25 25 26 26 25 25 27 25 22 23 24 25 26 26 26 25 24 25 24
15 16 17 18 18 19 18 21 17 15 19 23 22 22 20 21 21 20 20 21 21 21 23 21 21 24 25 24 24 24 24 24 26 25 21 23 24 25 26 26 26 26 25 24 24
15 16 17 18 18 17 17 16 14 14 19 22 20 20 21 20 22 22 21 22 21 22 23 22 25 22 23 23 22 23 23 25 25 23 22 21 22 25 27 26 24 23 23 22 21
15 16 17 19 18 16 17 14 13 14 21 23 20 20 19 21 21 20 20 21 22 22 23 23 24 22 22 22 24 23 25 24 23 22 23 22 23 26 28 28 25 23 23 21 19
15 15 16 17 15 19 14 14 13 16 21 22 20 18 19 20 20 18 18 20 21 22 21 23 21 20 20 22 24 23 20 21 21 21 22 22 21 25 26 26 27 26 23 21 19
15 15 16 15 15 15 15 14 15 21 19 22 20 19 19 20 20 18 19 19 19 20 21 21 19 20 22 21 21 20 20 20 20 20 19 22 23 24 26 25 26 24 21 18 16
14 15 15 14 17 15 14 17 21 21 23 23 21 20 21 22 21 19 19 19 21 19 21 23 22 21 20 20 18 19 20 21 20 18 21 21 21 25 26 24 23 23 20 16 14
14 15 13 13 13 14 15 20 19 23 24 21 20 20 20 23 21 20 21 21 22 22 21 22 22 20 19 21 23 18 21 21 21 22 24 19 20 23 25 21 21 18 18 15 13
13 14 14 12 13 13 18 19 21 23 21 20 21 21 23 21 20 20 21 22 24 23 21 23 23 18 19 20 21 20 18 21 21 22 22 23 24 26 20 19 17 16 15 14 13
9 13 14 11 12 14 18 19 20 19 19 20 20 22 21 23 20 20 22 23 21 22 22 22 20 23 18 17 18 18 20 19 19 19 20 22 23 24 22 21 20 18 15 15 12
10 16 12 12 12 17 17 19 19 19 17 19 19 20 21 20 21 21 21 22 21 21 20 21 20 21 17 17 20 17 18 18 19 21 20 21 22 26 22 21 22 21 18 16 11
12 16 13 13 16 17 17 14 14 17 17 17 17 18 18 19 19 19 19 21 21 20 19 20 19 19 21 22 22 21 20 20 19 19 21 21 21 24 25 21 20 21 19 15 12
12 13 14 14 14 12 11 12 13 11 11 11 12 10 10 11 12 16 17 13 12 15 14 16 17 17 18 21 20 17 19 20 20 19 17 17 18 23 17 9 8 14 14 13 9
12 13 14 14 12 11 11 12 12 12 10 8 8 7 7 8 10 10 10 10 9 10 11 12 12 14 16 19 18 14 16 17 16 14 15 17 18 15 3 2 3 5 12 11 6
10 8 8 12 12 10 11 12 11 12 11 11 10 8 8 8 10 11 8 11 11 12 9 7 9 9 10 10 11 12 12 12 12 12 11 11 8 -1 -1 -1 -1 -2 5 5 2
7 6 7 10 10 10 11 10 9 8 8 10 9 8 9 9 10 9 9 10 10 12 12 10 8 10 9 12 13 12 2 3 1 -2 0 3 1 -1 -3 -2 -3 -3 -3 -4 -4
4 5 5 8 8 9 9 7 6 7 7 8 8 8 8 9 8 8 9 9 9 9 9 9 9 9 9 13 13 12 -0 -0 -2 -4 -2 -2 -3 -4 -2 -4 -5 -5 -4 -4 -4
Height
775 771 769 769 770 769 769 769 769 768 768 768 767 767 766 766 764 764 762 761 761 761 762 764 764 764 764 762 763 761 766 758 748 751 745 747 753 749 750 749 752 753 752 759 762
773 770 770 770 769 769 768 768 768 767 767 766 766 765 765 764 763 760 758 758 759 760 762 761 760 762 759 759 761 763 761 750 743 744 748 747 751 745 754 752 750 751 755 761 765
773 772 771 770 768 768 767 766 766 766 765 765 765 764 764 763 760 750 754 756 758 759 761 760 758 759 759 757 757 755 759 744 746 746 749 749 750 747 751 750 741 744 746 759 763
774 772 770 768 767 766 765 765 765 765 764 765 764 764 763 764 762 752 753 755 757 759 760 759 759 761 760 760 749 762 749 748 748 751 753 752 746 748 745 740 736 738 737 748 757
775 772 769 766 765 764 763 764 763 763 763 764 764 764 763 758 750 751 752 754 756 758 758 758 757 756 759 750 751 757 747 745 747 751 752 749 752 749 739 733 734 739 742 743 750
776 772 768 766 763 761 761 762 762 762 763 763 763 764 763 760 750 751 752 754 756 757 757 757 754 751 754 753 755 746 748 745 743 748 749 753 746 749 729 729 730 733 739 741 744
776 772 768 764 761 760 760 760 760 761 762 762 763 763 759 751 750 751 752 754 755 756 755 755 756 756 751 753 748 750 756 740 737 742 749 749 748 739 724 726 729 729 731 736 738
777 772 767 764 761 760 759 758 759 759 760 761 761 762 753 748 750 750 751 753 754 756 757 757 757 756 756 753 752 754 747 747 734 741 747 751 735 710 711 719 726 726 727 729 732
777 772 768 764 762 759 758 757 757 757 758 759 761 760 750 747 748 748 750 751 753 756 757 757 757 755 758 758 751 745 745 732 731 739 742 749 730 709 718 720 720 718 720 723 726
778 773 769 764 761 759 757 756 755 756 757 759 759 761 746 743 745 747 749 751 752 754 756 757 756 755 752 750 752 733 730 729 733 735 744 740 733 719 712 715 714 713 711 712 717
779 773 768 763 760 758 757 758 758 757 755 743 739 737 739 744 745 746 748 750 750 751 754 752 757 750 737 736 733 731 738 735 723 725 739 732 723 711 706 705 703 703 705 705 706
778 773 768 764 760 759 758 757 762 765 752 734 737 739 741 742 743 744 748 749 749 749 744 756 751 732 728 734 736 738 741 734 721 723 741 728 719 704 697 694 692 691 693 698 702
779 773 768 764 761 761 761 763 762 763 754 733 736 736 738 741 737 736 743 741 744 743 741 743 725 732 733 736 742 735 736 728 727 727 734 733 719 698 680 683 689 691 693 697 702
779 773 768 764 764 763 763 763 762 763 750 731 736 736 738 737 739 738 739 740 740 739 736 734 722 731 737 735 729 736 718 722 731 740 736 727 716 692 681 675 683 688 691 698 703
778 773 769 765 765 763 766 763 762 763 765 731 736 737 736 737 738 740 740 740 738 734 739 728 731 738 737 728 721 727 733 732 734 737 731 728 736 689 679 681 674 675 688 695 702
776 772 768 767 765 764 763 762 763 759 768 731 733 736 738 734 734 738 738 740 738 737 732 727 731 731 723 725 729 732 735 738 739 738 741 718 717 689 677 678 671 678 692 701 706
774 770 767 765 764 763 762 761 760 759 727 731 732 735 732 728 731 734 737 738 733 743 733 717 719 722 727 731 736 737 734 738 739 748 725 709 711 680 671 676 680 680 690 702 708
771 767 765 764 763 762 763 758 766 733 726 731 733 733 734 722 725 728 727 727 718 718 724 720 722 720 718 714 709 731 724 726 725 713 696 717 712 685 666 676 679 690 693 702 708
768 764 764 765 763 763 759 757 740 731 736 737 730 732 722 726 731 727 722 715 704 709 724 710 704 713 714 713 712 720 729 711 716 701 705 690 671 658 678 682 688 691 697 702 708
769 764 765 766 764 763 755 749 740 741 742 738 740 725 727 717 727 727 713 703 711 709 706 704 713 695 716 722 721 718 712 721 721 723 712 683 678 672 673 673 674 684 693 698 709
770 761 769 766 765 759 755 745 744 743 747 743 735 730 724 725 720 719 712 705 710 710 713 710 710 700 718 717 706 721 718 715 710 694 697 693 674 650 665 671 669 673 682 692 706
774 761 770 767 763 756 757 767 764 752 749 747 742 737 735 729 725 720 718 714 709 712 716 706 707 702 691 683 685 688 691 694 700 696 687 680 670 655 655 667 676 672 677 691 703
781 777 772 769 768 774 778 775 771 775 774 770 763 770 766 759 755 730 721 734 739 728 731 724 709 709 690 683 683 699 688 688 685 686 693 695 671 662 687 721 725 704 695 697 706
785 777 775 775 785 786 785 774 775 772 778 784 782 783 784 777 767 758 756 750 754 750 746 737 730 715 701 683 684 712 701 697 700 708 696 680 670 698 755 757 751 739 706 709 723
795 803 805 785 781 791 787 782 779 774 778 776 773 780 782 777 762 752 762 753 747 744 752 759 746 741 731 729 722 716 710 708 704 705 707 710 734 790 790 781 772 763 732 730 742
809 813 810 799 795 791 784 784 792 793 793 780 779 782 779 774 766 764 764 757 748 738 738 746 746 734 731 716 707 708 773 761 780 793 781 768 777 795 798 794 785 778 776 773 770
825 823 819 802 799 796 790 801 803 800 795 789 788 785 781 773 777 772 766 758 751 750 750 750 742 734 719 701 701 701 797 795 809 817 807 805 814 811 799 801 801 793 790 788 787
Wind_Speed
9 8 6 6 5 5 5 5 5 5 5 5 5 6 8 8 7 6 8 2 4 6 5 5 7 7 6 4 3 2 5 7 8 5 2 3 7 6 1 11 5 8 9 4 17
12 9 7 6 6 6 6 5 5 5 5 4 4 5 7 8 8 12 7 6 6 5 6 9 9 8 5 4 3 6 7 7 6 5 6 3 8 6 5 10 14 11 6 7 17
15 10 7 6 6 5 5 5 5 4 4 4 4 5 8 5 7 3 10 7 6 7 5 7 4 7 8 5 7 5 7 5 6 6 5 7 8 9 9 12 13 14 15 14 17
18 13 8 7 6 6 6 5 5 4 4 5 5 7 8 4 3 5 9 7 6 6 6 6 7 7 6 9 7 8 12 11 4 2 4 8 7 8 15 18 2 5 7 18 18
21 18 12 9 7 6 6 7 5 4 5 7 7 7 5 7 5 7 6 6 6 7 9 8 9 9 8 5 6 13 12 8 9 7 8 9 13 12 18 16 15 8 6 13 16
23 22 17 11 8 7 7 7 6 7 7 7 6 6 6 8 4 7 7 7 6 9 8 10 4 7 8 7 9 6 9 12 8 10 8 8 13 3 10 3 15 16 14 13 16
26 25 20 15 8 6 5 7 8 8 8 6 5 4 8 9 3 6 7 5 6 6 6 7 5 7 3 7 6 8 10 12 14 13 6 4 12 17 19 10 9 13 16 15 16
29 29 24 18 7 5 6 6 9 9 8 7 4 5 7 3 5 7 8 5 4 3 2 3 3 6 6 3 5 6 7 7 6 9 4 6 14 8 5 11 13 13 13 15 17
30 29 27 20 10 9 9 7 9 8 6 5 3 5 6 2 5 9 9 5 7 5 3 3 3 4 3 7 9 9 10 12 7 11 4 12 13 5 2 8 12 13 14 14 14
30 29 28 23 12 9 7 3 1 3 3 3 4 4 6 3 6 8 6 9 3 7 4 5 5 8 8 10 10 11 13 11 11 8 10 12 21 18 15 13 17 17 17 16 15
31 30 29 25 11 9 5 1 4 5 7 8 4 3 4 4 6 7 7 8 5 6 7 10 8 14 15 17 19 15 14 17 16 4 6 17 21 22 19 18 18 17 17 16 15
32 31 29 25 9 10 5 3 3 3 9 14 15 10 2 4 5 8 9 10 8 13 13 5 15 17 15 8 11 14 16 20 17 4 5 16 21 23 23 22 20 19 15 14 14
31 31 30 24 5 7 6 4 3 3 6 4 3 6 6 9 6 10 13 7 9 14 14 17 8 4 7 12 13 16 17 18 17 3 13 15 18 22 19 8 7 7 7 7 9
30 30 29 20 2 7 3 6 4 2 5 5 4 3 4 3 5 1 12 4 7 10 15 14 19 12 10 14 13 17 12 15 14 8 10 1 13 16 18 19 11 11 11 10 8
28 28 26 13 6 4 4 7 4 3 6 4 4 2 3 6 3 5 4 5 11 8 5 6 6 9 14 15 11 5 2 3 8 12 14 14 10 6 2 11 14 8 6 7 5
27 26 24 8 4 2 6 4 2 4 7 1 3 4 5 9 4 4 5 4 2 7 15 19 1 5 12 1 6 7 3 4 4 6 9 17 16 11 11 8 11 8 8 6 4
27 25 17 8 4 6 4 2 4 6 2 3 2 3 6 6 7 9 8 10 8 5 10 13 19 7 7 9 5 10 7 5 7 5 8 3 8 17 1 2 4 9 9 6 3
27 21 10 4 5 3 3 4 9 4 8 4 2 3 6 3 8 8 7 13 19 16 9 9 9 14 13 16 7 15 15 7 10 11 13 7 8 6 12 2 2 3 3 4 4
24 9 4 3 3 3 5 8 5 4 4 6 7 7 12 6 5 6 12 18 13 18 11 10 17 3 10 3 8 7 10 10 17 21 16 14 21 19 6 4 5 7 7 7 6
15 7 4 9 6 5 5 9 6 1 4 5 9 10 15 10 7 5 7 1 4 9 15 9 14 9 7 3 6 6 3 5 6 8 17 15 17 13 7 13 12 10 9 8 6
5 3 7 12 4 4 7 9 6 7 4 5 14 20 20 19 18 18 12 7 4 5 6 8 10 15 5 9 13 8 7 8 6 13 15 17 12 10 5 7 1 7 9 9 9
7 1 11 10 3 1 6 6 8 8 10 11 7 14 17 19 22 22 23 20 13 10 10 11 8 17 23 19 16 19 18 21 14 17 15 17 20 11 17 2 4 6 5 8 9
5 3 7 8 2 4 5 5 5 9 9 10 7 10 10 6 7 11 12 12 22 14 11 9 6 12 15 16 15 9 17 16 19 17 20 18 21 11 18 25 26 20 1 7 9
4 3 3 4 4 7 8 8 6 3 1 3 4 2 5 3 4 5 8 8 19 16 16 8 5 14 15 15 17 3 11 15 16 9 20 22 27 15 25 26 26 26 20 3 7
5 3 3 5 3 9 9 10 13 10 4 8 2 4 6 7 16 17 3 16 12 10 3 5 5 8 11 16 19 20 22 20 19 15 12 14 10 17 19 23 24 24 20 12 11
4 4 5 5 7 9 4 5 10 9 7 10 11 13 13 14 15 18 17 14 12 13 13 8 10 13 19 21 19 21 19 10 13 14 8 11 10 14 13 15 21 21 19 19 17
8 4 3 3 5 5 3 7 10 12 8 8 15 17 16 13 15 19 20 22 22 20 19 17 8 9 14 18 17 12 16 14 13 16 10 10 12 18 14 15 16 16 17 16 14
Wind_Direction
345 342 343 320 298 291 286 279 268 260 255 256 264 280 296 300 288 224 242 187 185 205 177 179 191 188 197 195 237 279 253 264 276 281 330 124 217 170 337 257 205 195 265 68 140
359 358 343 320 305 294 285 273 266 263 253 255 269 298 309 305 263 242 225 207 207 194 187 195 187 187 199 213 204 232 248 280 3 319 278 213 240 243 230 226 237 227 188 154 157
7 357 341 320 304 290 277 278 273 258 249 251 271 310 321 303 271 176 200 194 193 188 215 220 228 209 238 224 207 200 247 344 281 282 273 271 252 234 248 253 241 232 218 185 184
14 4 348 327 308 292 287 277 263 253 257 262 278 313 318 255 295 139 166 180 186 181 193 191 208 214 244 222 206 252 243 271 284 300 256 255 277 253 239 248 344 309 246 175 197
15 10 356 332 306 293 284 272 264 259 267 270 282 309 302 238 261 168 173 178 174 176 201 207 223 231 251 249 239 242 266 279 264 254 255 264 257 265 266 258 253 222 214 192 203
14 11 2 346 319 287 271 267 263 259 265 272 285 294 256 258 112 152 160 174 189 192 207 219 242 268 288 262 242 355 288 274 259 245 240 253 265 290 255 273 239 228 218 218 210
14 10 5 358 339 324 291 266 255 252 262 264 283 276 253 264 166 165 170 194 191 218 218 223 248 232 311 250 265 278 285 272 243 237 250 233 258 234 247 235 251 225 222 221 217
13 11 7 3 358 348 318 281 254 247 251 252 255 267 267 208 185 175 167 151 144 157 219 163 208 253 246 353 240 258 251 272 69 179 191 205 260 290 214 218 235 228 218 218 219
10 10 8 3 346 339 331 295 250 237 245 230 241 240 265 153 199 197 188 186 158 136 111 135 197 246 197 238 259 212 268 250 223 190 162 210 271 283 166 222 240 229 224 220 221
7 7 6 1 351 338 340 344 186 169 175 202 249 260 197 219 160 171 172 168 172 154 155 202 220 237 219 224 244 280 242 260 264 177 218 236 256 262 259 239 252 252 248 236 222
5 4 2 358 356 351 1 269 213 186 211 224 207 244 148 119 145 181 166 168 174 211 219 196 227 225 233 229 258 296 278 277 277 161 230 254 262 269 268 266 260 249 252 248 233
3 0 360 357 6 9 21 15 40 336 294 248 242 255 247 196 178 181 173 194 198 221 210 201 239 248 262 278 265 253 264 268 278 163 232 271 272 278 273 263 258 257 246 240 246
359 358 356 355 10 25 42 50 344 326 264 183 198 240 218 197 232 194 189 216 223 232 215 239 249 48 225 238 241 244 251 264 274 262 241 278 277 267 258 250 260 264 248 229 212
354 354 355 357 40 346 41 346 340 317 276 171 174 142 162 216 222 133 213 236 215 247 232 254 259 232 226 246 240 262 270 254 268 270 274 139 290 282 278 265 212 212 214 214 199
349 348 350 359 315 327 321 331 323 263 294 92 146 106 157 215 115 168 178 201 241 216 204 223 206 218 231 242 227 253 19 249 253 261 281 256 264 283 343 251 249 228 196 181 190
343 343 341 344 302 273 326 325 266 241 247 183 134 180 193 207 199 127 188 228 336 260 240 259 95 248 236 136 236 119 168 208 239 260 257 249 237 276 271 212 250 157 168 166 168
333 335 326 317 322 310 327 250 260 233 101 160 265 201 240 211 213 202 188 196 211 207 229 241 233 222 201 228 190 205 201 258 229 206 253 166 256 244 286 238 284 198 180 167 155
328 325 311 270 292 301 245 222 245 280 258 53 323 248 242 212 231 211 239 244 225 245 270 267 260 192 187 223 230 205 211 215 248 245 271 135 234 248 234 348 187 206 234 161 165
332 322 299 340 315 290 235 225 263 297 350 325 298 266 259 209 263 218 229 255 253 202 228 267 258 120 183 232 209 170 216 259 271 276 276 260 263 267 151 228 233 223 212 207 176
329 313 44 341 327 267 237 250 275 346 323 280 280 273 277 261 223 224 255 63 253 261 247 277 284 256 135 188 226 243 0 210 216 260 251 260 262 264 222 223 216 218 218 204 172
323 312 12 344 329 244 249 256 317 346 321 282 277 273 274 272 273 266 264 270 247 249 253 273 254 257 153 202 227 202 235 224 292 251 263 269 264 275 14 17 245 230 217 198 182
330 10 351 345 267 226 299 8 343 323 327 302 287 283 281 285 278 269 265 259 339 308 274 263 279 272 260 251 237 252 240 235 239 255 250 256 261 276 289 348 265 241 168 167 175
354 322 354 336 355 19 336 317 331 18 7 360 332 11 9 334 318 299 276 37 18 360 8 351 255 262 271 249 218 240 242 246 262 276 264 270 265 288 28 4 354 340 227 180 150
330 344 18 53 62 4 342 306 310 360 95 10 297 81 336 307 292 312 332 348 336 343 348 317 249 255 259 277 323 229 261 280 283 265 260 252 269 348 359 353 350 336 312 153 107
7 51 9 338 350 334 318 294 313 325 331 311 220 163 334 300 309 277 271 308 293 316 16 39 302 329 314 308 305 301 295 301 284 269 259 315 7 9 5 355 357 355 7 52 65
16 355 342 299 316 320 316 6 318 345 313 313 310 334 316 296 297 304 308 302 281 286 281 199 269 269 277 276 275 272 23 6 27 2 350 7 88 11 15 10 15 14 23 35 40
12 17 295 328 323 305 11 350 316 318 302 332 325 313 306 325 317 299 284 275 269 281 286 296 289 301 278 297 299 272 27 76 72 38 6 15 344 345 353 27 24 21 21 21 20